TimePST,TemperatureF,Dew PointF,Humidity,Sea Level PressureIn,VisibilityMPH,Wind Direction,Wind SpeedMPH,Gust SpeedMPH,PrecipitationIn,Events,Conditions,WindDirDegrees,DateUTC
12:53 AM,61.0,28.9,30,30.07,10.0,NNW,6.9,-,0.00,,Overcast,330,2011-12-17 08:53:00
1:53 AM,61.0,30.0,31,30.08,10.0,North,13.8,19.6,N/A,,Overcast,350,2011-12-17 09:53:00
2:53 AM,60.1,32.0,35,30.07,10.0,NW,10.4,-,N/A,,Overcast,310,2011-12-17 10:53:00
3:32 AM,57.2,37.4,48,30.07,9.0,Variable,5.8,-,0.00,Rain,Light Rain,0,2011-12-17 11:32:00
3:53 AM,59.0,37.0,44,30.06,10.0,West,9.2,-,0.00,Rain,Light Rain,280,2011-12-17 11:53:00
4:53 AM,60.1,36.0,41,30.06,10.0,WNW,6.9,-,0.00,,Overcast,290,2011-12-17 12:53:00
5:53 AM,60.1,26.1,27,30.06,10.0,NW,9.2,-,N/A,,Mostly Cloudy,310,2011-12-17 13:53:00
6:53 AM,59.0,32.0,36,30.08,10.0,NNW,6.9,-,N/A,,Overcast,330,2011-12-17 14:53:00
7:53 AM,60.1,28.9,31,30.11,10.0,NW,6.9,-,N/A,,Overcast,320,2011-12-17 15:53:00
8:53 AM,57.9,37.0,46,30.14,10.0,NW,9.2,-,0.00,Rain,Light Rain,310,2011-12-17 16:53:00
9:53 AM,60.1,37.0,42,30.14,10.0,NW,8.1,-,0.02,,Overcast,320,2011-12-17 17:53:00
10:53 AM,60.1,39.9,47,30.11,10.0,SW,5.8,-,N/A,,Overcast,230,2011-12-17 18:53:00
11:53 AM,61.0,39.0,44,30.09,10.0,WSW,3.5,-,N/A,,Overcast,240,2011-12-17 19:53:00
12:53 PM,64.0,34.0,33,30.04,10.0,WSW,4.6,-,N/A,,Overcast,240,2011-12-17 20:53:00
1:53 PM,62.1,34.0,35,30.06,10.0,SW,4.6,-,N/A,,Overcast,220,2011-12-17 21:53:00
2:53 PM,60.1,34.0,38,30.09,10.0,NW,10.4,-,N/A,,Overcast,310,2011-12-17 22:53:00
3:53 PM,55.4,39.2,54,30.11,10.0,NW,11.5,-,N/A,Rain,Light Rain,310,2011-12-17 23:53:00
4:53 PM,55.9,42.1,60,30.13,10.0,NW,8.1,-,0.00,Rain,Light Rain,320,2011-12-18 00:53:00
5:53 PM,53.1,46.9,80,30.15,10.0,NNW,6.9,-,0.01,Rain,Light Rain,330,2011-12-18 01:53:00
6:53 PM,54.0,44.1,69,30.15,10.0,NW,9.2,-,0.00,,Overcast,320,2011-12-18 02:53:00
7:53 PM,54.0,43.0,66,30.14,10.0,WSW,4.6,-,N/A,,Overcast,250,2011-12-18 03:53:00
8:53 PM,55.0,41.0,59,30.14,10.0,West,4.6,-,N/A,,Mostly Cloudy,260,2011-12-18 04:53:00
9:53 PM,50.0,43.0,77,30.14,10.0,Calm,Calm,-,N/A,,Clear,0,2011-12-18 05:53:00
10:53 PM,48.9,43.0,80,30.14,10.0,NW,5.8,-,N/A,,Clear,320,2011-12-18 06:53:00
11:53 PM,46.9,43.0,86,30.12,10.0,NNW,5.8,-,N/A,,Clear,330,2011-12-18 07:53:00